Time,TemperatureF,DewpointF,PressureIn,WindDirection,WindDirectionDegrees,WindSpeedMPH,WindSpeedGustMPH,Humidity,HourlyPrecipIn,Conditions,Clouds,dailyrainin,SolarRadiationWatts/m^2,SoftwareType,DateUTC
2013-10-25 00:03:00,30.9,27.0,30.37,SE,126,0.0,-999.0,85,-99.99,,,0.00,0,weatherlink.com 1.10,2013-10-25 05:03:00,
2013-10-25 00:18:00,30.6,27.0,30.37,SE,126,0.0,-999.0,85,-99.99,,,0.00,0,weatherlink.com 1.10,2013-10-25 05:18:00,
2013-10-25 00:33:00,30.3,26.0,30.38,SE,126,0.0,-999.0,85,-99.99,,,0.00,0,weatherlink.com 1.10,2013-10-25 05:33:00,
2013-10-25 00:48:00,30.3,26.0,30.38,SE,126,0.0,-999.0,85,-99.99,,,0.00,0,weatherlink.com 1.10,2013-10-25 05:48:00,
2013-10-25 01:03:00,30.1,26.0,30.38,SE,126,0.0,-999.0,85,-99.99,,,0.00,0,weatherlink.com 1.10,2013-10-25 06:03:00,
2013-10-25 01:18:00,30.1,26.0,30.38,SE,126,0.0,-999.0,84,-99.99,,,0.00,0,weatherlink.com 1.10,2013-10-25 06:18:00,
2013-10-25 01:33:00,30.1,26.0,30.38,SE,126,0.0,-999.0,84,-99.99,,,0.00,0,weatherlink.com 1.10,2013-10-25 06:33:00,
2013-10-25 01:57:00,30.0,26.0,30.38,SE,126,0.0,-999.0,84,-99.99,,,0.00,0,weatherlink.com 1.10,2013-10-25 06:57:00,
2013-10-25 02:03:00,29.8,26.0,30.39,SE,126,0.0,-999.0,84,-99.99,,,0.00,0,weatherlink.com 1.10,2013-10-25 07:03:00,
2013-10-25 02:18:00,29.7,25.0,30.38,SE,126,0.0,-999.0,84,-99.99,,,0.00,0,weatherlink.com 1.10,2013-10-25 07:18:00,
2013-10-25 02:33:00,29.4,25.0,30.38,SE,126,0.0,-999.0,84,-99.99,,,0.00,0,weatherlink.com 1.10,2013-10-25 07:33:00,
2013-10-25 02:48:00,28.8,25.0,30.39,SE,126,0.0,-999.0,85,-99.99,,,0.00,0,weatherlink.com 1.10,2013-10-25 07:48:00,
2013-10-25 03:08:00,28.7,25.0,30.39,SE,126,0.0,-999.0,85,-99.99,,,0.00,0,weatherlink.com 1.10,2013-10-25 08:08:00,
2013-10-25 03:18:00,28.5,25.0,30.38,SE,126,0.0,-999.0,86,-99.99,,,0.00,0,weatherlink.com 1.10,2013-10-25 08:18:00,
2013-10-25 03:33:00,28.5,25.0,30.38,SE,126,0.0,-999.0,86,-99.99,,,0.00,0,weatherlink.com 1.10,2013-10-25 08:33:00,
2013-10-25 03:48:00,28.8,25.0,30.38,SE,126,0.0,-999.0,85,-99.99,,,0.00,0,weatherlink.com 1.10,2013-10-25 08:48:00,
2013-10-25 04:03:00,28.7,25.0,30.38,SE,126,0.0,-999.0,84,-99.99,,,0.00,0,weatherlink.com 1.10,2013-10-25 09:03:00,
2013-10-25 04:19:00,28.4,24.0,30.38,SE,126,0.0,-999.0,84,-99.99,,,0.00,0,weatherlink.com 1.10,2013-10-25 09:19:00,
2013-10-25 04:33:00,28.1,24.0,30.38,SE,126,0.0,-999.0,84,-99.99,,,0.00,0,weatherlink.com 1.10,2013-10-25 09:33:00,
2013-10-25 04:48:00,27.6,24.0,30.39,SE,126,0.0,-999.0,85,-99.99,,,0.00,0,weatherlink.com 1.10,2013-10-25 09:48:00,
2013-10-25 05:03:00,27.2,23.0,30.39,SE,126,0.0,-999.0,85,-99.99,,,0.00,0,weatherlink.com 1.10,2013-10-25 10:03:00,
2013-10-25 05:18:00,26.7,23.0,30.39,SE,126,0.0,-999.0,86,-99.99,,,0.00,0,weatherlink.com 1.10,2013-10-25 10:18:00,
2013-10-25 05:33:00,26.4,23.0,30.40,SE,126,0.0,-999.0,86,-99.99,,,0.00,0,weatherlink.com 1.10,2013-10-25 10:33:00,
2013-10-25 05:48:00,26.3,23.0,30.40,SE,126,0.0,-999.0,87,-99.99,,,0.00,0,weatherlink.com 1.10,2013-10-25 10:48:00,
2013-10-25 06:03:00,26.0,23.0,30.40,SE,126,0.0,-999.0,87,-99.99,,,0.00,0,weatherlink.com 1.10,2013-10-25 11:03:00,
2013-10-25 06:18:00,25.7,22.0,30.41,SE,126,0.0,-999.0,87,-99.99,,,0.00,0,weatherlink.com 1.10,2013-10-25 11:18:00,
2013-10-25 06:38:00,25.6,23.0,30.40,SE,126,0.0,-999.0,88,-99.99,,,0.00,0,weatherlink.com 1.10,2013-10-25 11:38:00,
2013-10-25 06:48:00,25.4,22.0,30.40,SE,126,0.0,-999.0,88,-99.99,,,0.00,0,weatherlink.com 1.10,2013-10-25 11:48:00,
2013-10-25 07:03:00,25.4,22.0,30.40,SE,126,0.0,-999.0,88,-99.99,,,0.00,0,weatherlink.com 1.10,2013-10-25 12:03:00,
2013-10-25 07:18:00,25.3,23.0,30.40,SE,126,0.0,-999.0,89,-99.99,,,0.00,0,weatherlink.com 1.10,2013-10-25 12:18:00,
2013-10-25 07:33:00,25.3,23.0,30.39,SE,126,0.0,-999.0,89,-99.99,,,0.00,0,weatherlink.com 1.10,2013-10-25 12:33:00,
2013-10-25 07:48:00,25.4,23.0,30.39,SE,126,0.0,-999.0,89,-99.99,,,0.00,5,weatherlink.com 1.10,2013-10-25 12:48:00,
2013-10-25 08:03:00,26.1,23.0,30.39,SE,126,0.0,-999.0,89,-99.99,,,0.00,12,weatherlink.com 1.10,2013-10-25 13:03:00,
2013-10-25 08:18:00,26.7,24.0,30.39,SE,126,0.0,-999.0,89,-99.99,,,0.00,16,weatherlink.com 1.10,2013-10-25 13:18:00,
2013-10-25 08:33:00,27.6,25.0,30.39,SE,126,0.0,-999.0,88,-99.99,,,0.00,19,weatherlink.com 1.10,2013-10-25 13:33:00,
2013-10-25 08:58:00,30.6,25.0,30.39,SE,125,0.0,-999.0,80,-99.99,,,0.00,30,weatherlink.com 1.10,2013-10-25 13:58:00,
2013-10-25 09:03:00,31.0,25.0,30.39,SE,124,1.0,-999.0,79,-99.99,,,0.00,33,weatherlink.com 1.10,2013-10-25 14:03:00,
2013-10-25 09:19:00,32.8,26.0,30.39,NNE,27,1.0,-999.0,76,-99.99,,,0.00,47,weatherlink.com 1.10,2013-10-25 14:19:00,
2013-10-25 09:34:00,34.9,27.0,30.39,NE,44,0.0,-999.0,73,-99.99,,,0.00,60,weatherlink.com 1.10,2013-10-25 14:34:00,
2013-10-25 09:49:00,36.8,28.0,30.38,NNE,32,3.0,-999.0,71,-99.99,,,0.00,53,weatherlink.com 1.10,2013-10-25 14:49:00,
2013-10-25 10:08:00,39.9,29.0,30.38,NE,55,2.0,-999.0,65,-99.99,,,0.00,111,weatherlink.com 1.10,2013-10-25 15:08:00,
2013-10-25 10:19:00,41.5,30.0,30.38,North,11,2.0,-999.0,63,-99.99,,,0.00,111,weatherlink.com 1.10,2013-10-25 15:19:00,
2013-10-25 10:34:00,43.8,30.0,30.36,NNE,28,0.0,-999.0,59,-99.99,,,0.00,84,weatherlink.com 1.10,2013-10-25 15:34:00,
2013-10-25 10:49:00,45.7,28.0,30.36,NE,40,5.0,-999.0,51,-99.99,,,0.00,475,weatherlink.com 1.10,2013-10-25 15:49:00,
2013-10-25 11:04:00,47.3,28.0,30.35,NE,47,3.0,-999.0,47,-99.99,,,0.00,510,weatherlink.com 1.10,2013-10-25 16:04:00,
2013-10-25 11:19:00,48.2,28.0,30.34,NE,55,6.0,-999.0,46,-99.99,,,0.00,538,weatherlink.com 1.10,2013-10-25 16:19:00,
2013-10-25 11:34:00,49.5,27.0,30.34,NE,49,3.0,-999.0,42,-99.99,,,0.00,554,weatherlink.com 1.10,2013-10-25 16:34:00,
2013-10-25 11:49:00,50.4,27.0,30.34,NNE,30,6.0,-999.0,41,-99.99,,,0.00,566,weatherlink.com 1.10,2013-10-25 16:49:00,
2013-10-25 12:04:00,51.4,28.0,30.32,NE,50,7.0,-999.0,40,-99.99,,,0.00,589,weatherlink.com 1.10,2013-10-25 17:04:00,
2013-10-25 12:29:00,52.6,27.0,30.31,NE,49,5.0,-999.0,38,-99.99,,,0.00,596,weatherlink.com 1.10,2013-10-25 17:29:00,
2013-10-25 12:34:00,52.8,28.0,30.30,ENE,68,1.0,-999.0,39,-99.99,,,0.00,599,weatherlink.com 1.10,2013-10-25 17:34:00,
2013-10-25 12:49:00,52.0,26.0,30.29,ENE,62,6.0,-999.0,37,-99.99,,,0.00,315,weatherlink.com 1.10,2013-10-25 17:49:00,
2013-10-25 13:04:00,52.2,27.0,30.28,NNE,24,5.0,-999.0,38,-99.99,,,0.00,343,weatherlink.com 1.10,2013-10-25 18:04:00,
2013-10-25 13:19:00,52.6,29.0,30.27,NE,55,7.0,-999.0,40,-99.99,,,0.00,246,weatherlink.com 1.10,2013-10-25 18:19:00,
2013-10-25 13:38:00,52.3,28.0,30.26,NNE,25,5.0,-999.0,39,-99.99,,,0.00,255,weatherlink.com 1.10,2013-10-25 18:38:00,
2013-10-25 13:49:00,52.3,28.0,30.25,NNE,30,5.0,-999.0,40,-99.99,,,0.00,410,weatherlink.com 1.10,2013-10-25 18:49:00,
2013-10-25 14:04:00,53.8,29.0,30.24,NNE,33,5.0,-999.0,38,-99.99,,,0.00,390,weatherlink.com 1.10,2013-10-25 19:04:00,
2013-10-25 14:19:00,54.5,29.0,30.22,NE,38,11.0,-999.0,38,-99.99,,,0.00,327,weatherlink.com 1.10,2013-10-25 19:19:00,
2013-10-25 14:34:00,54.5,28.0,30.21,NE,38,5.0,-999.0,36,-99.99,,,0.00,338,weatherlink.com 1.10,2013-10-25 19:34:00,
2013-10-25 14:49:00,55.4,29.0,30.20,NE,44,6.0,-999.0,36,-99.99,,,0.00,279,weatherlink.com 1.10,2013-10-25 19:49:00,
2013-10-25 15:04:00,55.9,28.0,30.19,East,81,4.0,-999.0,35,-99.99,,,0.00,454,weatherlink.com 1.10,2013-10-25 20:04:00,
2013-10-25 15:19:00,56.2,29.0,30.18,NNE,28,5.0,-999.0,35,-99.99,,,0.00,429,weatherlink.com 1.10,2013-10-25 20:19:00,
2013-10-25 15:34:00,56.3,29.0,30.18,NE,56,4.0,-999.0,35,-99.99,,,0.00,394,weatherlink.com 1.10,2013-10-25 20:34:00,
2013-10-25 15:58:00,56.3,28.0,30.17,North,11,11.0,-999.0,34,-99.99,,,0.00,343,weatherlink.com 1.10,2013-10-25 20:58:00,
2013-10-25 16:04:00,56.2,29.0,30.16,NE,44,6.0,-999.0,36,-99.99,,,0.00,211,weatherlink.com 1.10,2013-10-25 21:04:00,
2013-10-25 16:20:00,56.2,28.0,30.16,NNE,24,9.0,-999.0,34,-99.99,,,0.00,132,weatherlink.com 1.10,2013-10-25 21:20:00,
2013-10-25 16:35:00,55.9,28.0,30.15,NE,36,4.0,-999.0,35,-99.99,,,0.00,97,weatherlink.com 1.10,2013-10-25 21:35:00,
2013-10-25 16:50:00,55.6,29.0,30.14,NNE,15,3.0,-999.0,37,-99.99,,,0.00,125,weatherlink.com 1.10,2013-10-25 21:50:00,
2013-10-25 17:10:00,55.0,28.0,30.13,ENE,65,4.0,-999.0,36,-99.99,,,0.00,97,weatherlink.com 1.10,2013-10-25 22:10:00,
2013-10-25 17:20:00,54.5,28.0,30.13,NNE,28,8.0,-999.0,37,-99.99,,,0.00,67,weatherlink.com 1.10,2013-10-25 22:20:00,
2013-10-25 17:35:00,53.9,29.0,30.12,NNE,21,2.0,-999.0,38,-99.99,,,0.00,23,weatherlink.com 1.10,2013-10-25 22:35:00,
2013-10-25 17:50:00,53.2,29.0,30.12,NNE,29,5.0,-999.0,39,-99.99,,,0.00,16,weatherlink.com 1.10,2013-10-25 22:50:00,
2013-10-25 18:05:00,52.6,29.0,30.11,NE,46,3.0,-999.0,40,-99.99,,,0.00,9,weatherlink.com 1.10,2013-10-25 23:05:00,
2013-10-25 18:20:00,51.7,28.0,30.10,NNE,30,3.0,-999.0,41,-99.99,,,0.00,0,weatherlink.com 1.10,2013-10-25 23:20:00,
2013-10-25 18:35:00,50.8,29.0,30.09,NNE,13,6.0,-999.0,43,-99.99,,,0.00,0,weatherlink.com 1.10,2013-10-25 23:35:00,
2013-10-25 18:50:00,50.1,29.0,30.09,NNW,342,6.0,-999.0,44,-99.99,,,0.00,0,weatherlink.com 1.10,2013-10-25 23:50:00,
2013-10-25 19:05:00,49.6,28.0,30.09,North,5,2.0,-999.0,44,-99.99,,,0.00,0,weatherlink.com 1.10,2013-10-26 00:05:00,
2013-10-25 19:29:00,48.6,29.0,30.08,NNE,13,5.0,-999.0,47,-99.99,,,0.00,0,weatherlink.com 1.10,2013-10-26 00:29:00,
2013-10-25 19:35:00,48.5,29.0,30.08,NNE,32,4.0,-999.0,47,-99.99,,,0.00,0,weatherlink.com 1.10,2013-10-26 00:35:00,
2013-10-25 19:50:00,48.3,29.0,30.07,North,9,3.0,-999.0,47,-99.99,,,0.00,0,weatherlink.com 1.10,2013-10-26 00:50:00,
2013-10-25 20:05:00,47.9,28.0,30.07,NE,40,4.0,-999.0,47,-99.99,,,0.00,0,weatherlink.com 1.10,2013-10-26 01:05:00,
2013-10-25 20:20:00,47.9,28.0,30.07,NNE,33,0.0,-999.0,46,-99.99,,,0.00,0,weatherlink.com 1.10,2013-10-26 01:20:00,
2013-10-25 20:40:00,47.9,28.0,30.07,NNE,13,3.0,-999.0,46,-99.99,,,0.00,0,weatherlink.com 1.10,2013-10-26 01:40:00,
2013-10-25 20:50:00,47.6,28.0,30.06,North,9,9.0,-999.0,46,-99.99,,,0.00,0,weatherlink.com 1.10,2013-10-26 01:50:00,
2013-10-25 21:05:00,47.7,28.0,30.05,North,5,3.0,-999.0,46,-99.99,,,0.00,0,weatherlink.com 1.10,2013-10-26 02:05:00,
2013-10-25 21:20:00,47.9,27.0,30.05,NE,55,4.0,-999.0,45,-99.99,,,0.00,0,weatherlink.com 1.10,2013-10-26 02:20:00,
2013-10-25 21:35:00,47.6,28.0,30.05,NNE,28,1.0,-999.0,46,-99.99,,,0.00,0,weatherlink.com 1.10,2013-10-26 02:35:00,
2013-10-25 21:50:00,47.1,27.0,30.05,NNW,335,10.0,-999.0,46,-99.99,,,0.00,0,weatherlink.com 1.10,2013-10-26 02:50:00,
2013-10-25 22:05:00,47.0,27.0,30.05,NNE,23,2.0,-999.0,46,-99.99,,,0.00,0,weatherlink.com 1.10,2013-10-26 03:05:00,
2013-10-25 22:20:00,46.8,27.0,30.04,NE,40,2.0,-999.0,47,-99.99,,,0.00,0,weatherlink.com 1.10,2013-10-26 03:20:00,
2013-10-25 22:35:00,46.7,27.0,30.04,NNE,13,4.0,-999.0,47,-99.99,,,0.00,0,weatherlink.com 1.10,2013-10-26 03:35:00,
2013-10-25 23:00:00,46.5,27.0,30.03,NE,38,2.0,-999.0,47,-99.99,,,0.00,0,weatherlink.com 1.10,2013-10-26 04:00:00,
2013-10-25 23:05:00,46.5,27.0,30.03,NE,34,3.0,-999.0,47,-99.99,,,0.00,0,weatherlink.com 1.10,2013-10-26 04:05:00,
2013-10-25 23:20:00,46.4,27.0,30.02,ENE,59,2.0,-999.0,47,-99.99,,,0.00,0,weatherlink.com 1.10,2013-10-26 04:20:00,
2013-10-25 23:35:00,46.0,27.0,30.02,NE,44,4.0,-999.0,48,-99.99,,,0.00,0,weatherlink.com 1.10,2013-10-26 04:35:00,
2013-10-25 23:50:00,45.8,27.0,30.01,NE,53,0.0,-999.0,49,-99.99,,,0.00,0,weatherlink.com 1.10,2013-10-26 04:50:00,